Showing default

PARUS-6U1, 68456

Orbit data source: Space-Track

PARUS-6U1, 68456 is a Taiwanese payload satellite in SSO that was launched on Mon, 30 Mar 2026 UTC via an FALCON 9 launch vehicle from the Air Force Western Test Range (AFWTR). Payload-class satellites include a variety of spacecraft equipped with specific instruments for various scientific and technological missions. These include communications satellites like Starlink; space stations such as the ISS; scientific satellites like the Hubble; Earth observation satellites from companies like Planet Labs, Umbra, and HawkEye 360; GPS; miniature CubeSats for education and research; and military/defense satellites.

Loading next visibility...
Identifier
68456, 2026-067AS
Orbit
SSO
Country
Flag of TWTW / TWN
Related business
Manufacturer
TAIPT
Mission
Operational Civil Technology
Bus & Motor
CUBESAT 6U, Unknown motor
Mass
~10 kg wet, ~10 kg dry
Launch date (UTC)
2026-03-30 (5 months ago)
Launch vehicle
FALCON 9
Launch site
Air Force Western Test Range (AFWTR)
Object type
Payload
Rocket body
Debris
Shape & HBR
Box, 0.1 m
Radar Cross Section
0.035 m², Medium (>0.1 m² and < 1m²)

Expand to show TLE details & history
Last TLE update: 20 hours ago

TLE from 20 hours ago
0 PARUS-6U1
1 68456U 26067AS  26235.30021944  .00004829  00000-0  23988-3 0  9997
2 68456  97.4606 192.6822 0005465 170.2123 189.9218 15.18126905 22111
Epoch: 2026-08-23T07:12Z
TLE epoch observation values (Epoch: 2026-08-23T07:12:18.959Z)
Latitude
-0.00007°
Longitude
113.00496°
Altitude
518.298 km
Speed
7.602 km/s
True Right ascension
12h 50m 43s
True Declination
0° 00' 00"
Sunlit
Object was in daylight at epoch
Visualization orbit readout
Latitude
Unknown
Longitude
Unknown
Altitude
Unknown
Speed
Unknown
Apparent Right ascension
Unknown
Apparent Declination
Unknown
Sunlit
N/A
Visualization observer readout
Local Sidereal Time
18:16:54
Azimuth
Unknown
Elevation
Unknown
Doppler factor
Unknown
Orbital elements
Apogee altitude
512.236 km
Perigee altitude
504.709 km
Semi-major axis
6,886.61 km
Eccentricity
0.00055
Inclination
97.4606°
RAAN
192.6822°
Arg. of periapsis
170.2123°
True anomaly
189.91102°
Mean anomaly
189.9218°
Eccentric anomaly
189.91641°
Mean motion
3.79783 °/min
Orbital period
94.79 mins
BSTAR
0.00023988
Loading maneuver chart data...
Computing Atmospheric mass density...
Loading historical data...
Loading historical data...
Loading historical data...
Loading historical data...
Loading historical data...
Loading historical data...
Loading historical data...

Documentation

Showing up to 5 results
|